INTELSAT 805 (IS-805)

Last updated on Jan. 28, 2020, 4:40 a.m. UTC

1 25371U 98037A   20027.87514032 -.00000224  00000-0  00000-0 0  9995
2 25371   2.1241  88.8986 0009472 122.0322 339.9402  0.99475309 79160
UTC
Height (km)
Latitude
Longitude
Inclination
Orbital Period
UTC large
Height (km)
Speed (km/s)
/
Latitude / Longitude
Inclination (degrees)
Orbital Period (minutes)
Azimuth
Elevation
Range (km)
Doppler Factor
iOS Compass Heading
iOS Angle

Next 30 passes for location: Hong Kong

Rise time Rise Azimuth (degrees) Set time Set Azimuth (degrees) Duration Max altitude (degrees)

No matching passes for this satellites